Regional Weather Roundup
Issued by NWS

Home | Current Version | Previous Version | Text Only | Print | Product List | Glossary Off
Versions: 1 2 3 4 5 6 7 8 9 10 11 12 13 14 15 16 17 18 19 20 21 22 23 24 25 26 27 28 29 30 31 32 33 34 35 36 37 38 39 40 41 42 43 44 45 46 47 48 49 50

000
ASUS43 KOAX 292202
RWRNE

WEATHER ROUNDUP FOR NEBRASKA
NATIONAL WEATHER SERVICE OMAHA NE
500 PM CDT SUN MAR 29 2015

NOTES: SATELLITE DATA IS BEING USED TO AUGMENT CLOUD COVER ABOVE
       12000 FEET.
       "FAIR" INDICATES FEW OR NO CLOUDS BELOW 12,000 FEET WITH NO
       SIGNIFICANT WEATHER AND/OR OBSTRUCTIONS TO VISIBILITY.

  * THESE STATIONS DO NOT REPORT WEATHER SUCH AS RAIN...SNOW OR FOG.

NEZ001>004-019>022-054>056-292300-
NEBRASKA PANHANDLE

CITY           SKY/WX    TMP DP  RH WIND       PRES   REMARKS
SCOTTSBLUFF    MOSUNNY   64  23  21 N6        30.13F
ALLIANCE       SUNNY     63  24  22 W13       30.13F
CHADRON        SUNNY     64  27  24 W17G23    30.10F
KIMBALL        SUNNY     61  21  21 N6        30.15F
SIDNEY         SUNNY     61  24  24 NW12G20   30.17F
$$

NEZ057>060-069>072-079>082-292300-
SOUTHWEST NEBRASKA

CITY           SKY/WX    TMP DP  RH WIND       PRES   REMARKS
NORTH PLATTE   SUNNY     63  17  17 NW16      30.14F
IMPERIAL         N/A     64  19  17 N10G18    30.16F
MCCOOK         SUNNY     67  18  15 N17G26    30.15F
$$

NEZ005>010-023>029-035>040-094-292300-
NORTH CENTRAL NEBRASKA

CITY           SKY/WX    TMP DP  RH WIND       PRES   REMARKS
VALENTINE      SUNNY     62  17  17 NW12G20   30.11F
AINSWORTH      SUNNY     60  17  18 NW16      30.12S
BROKEN BOW     SUNNY     63  17  17 NW16G31   30.13S
O`NEILL        SUNNY     61  17  17 NW20G25   30.10S
ORD            SUNNY     62  10  13 N18       30.10F
$$

NEZ041-046>049-061>064-073>077-083>087-292300-
SOUTH CENTRAL NEBRASKA

CITY           SKY/WX    TMP DP  RH WIND       PRES   REMARKS
GRAND ISLAND   SUNNY     63  16  16 N25       30.12R
HASTINGS       SUNNY     64  17  16 N20G29    30.11S
HEBRON         SUNNY     64  23  21 N17G25    30.08S
KEARNEY *      SUNNY     64  12  13 NW18G24   30.13R
$$

NEZ011>018-030>034-042>045-292300-
NORTHEAST NEBRASKA

CITY           SKY/WX    TMP DP  RH WIND       PRES   REMARKS
NORFOLK        SUNNY     62  22  21 NW22G32   30.06R
ALBION         SUNNY     61  16  17 N15G22    30.09S
BLAIR          SUNNY     62  27  26 N23G29    30.03S
COLUMBUS *     SUNNY     61  25  25 N15G29    30.09S
$$

NEZ050>053-065>068-078-088>093-292300-
SOUTHEAST NEBRASKA

CITY           SKY/WX    TMP DP  RH WIND       PRES   REMARKS
LINCOLN        SUNNY     64  26  23 N25       30.07S
OMAHA EPPLEY   SUNNY     62  28  27 N22G31    30.03R
FALLS CITY     SUNNY     61  35  37 N16G30    30.04R
PLATTSMOUTH    SUNNY     61  23  23 NW18G29   30.04R
$$

NEZ044-045-051>053-067-292300-
OMAHA AREA

CITY           SKY/WX    TMP DP  RH WIND       PRES   REMARKS
OMAHA EPPLEY   SUNNY     62  28  27 N22G31    30.03R
BLAIR          SUNNY     62  27  26 N23G29    30.03S
PLATTSMOUTH    SUNNY     61  23  23 NW18G29   30.04R
$$


USA.gov is the U.S. government's official web portal to all federal, state and local government web resources and services.